sat.trackr.live / text

‹ back to catalog

STARLINK-3595

NORAD 51894 · 2022-022AU

PAYLOAD ACTIVE UNKNOWN

§ Identity

Operator
Country
US
Launch date
2022-03-03
Launch site
AFETR
Launch vehicle
Mass (kg)
RCS (m²)

Purposes: comms

External: N2YO · Heavens-Above · Gunter

§ Orbital elements

Epoch: 2026-05-25T01:10:35.067072Z

Period
95.44 min
Inclination
53.2131°
Eccentricity
0.0001188
Mean motion
15.08834843 rev/d
Perigee alt
538.9 km
Apogee alt
540.6 km
Semi-major
6,917.9 km
B*
-3.2538e-5
RAAN
16.3282°
Arg perigee
81.7435°
Mean anomaly
278.3692°
Rev number
23,483

§ Raw data

STARLINK-35951 51894U 22022AU  26145.04901698 -.00000806  00000+0 -32538-4 0  99902 51894  53.2131  16.3282 0001188  81.7435 278.3692 15.08834843234833

JSON: /api/v1/satellites/51894 · /tle

For live sub-satellite position, see the globe view (requires WebGL).

§ Visibility from observer

Set your observer location to see the next 7 days of passes ≥ 10°. The values pass through the URL so the page stays shareable.

No JS? Fill the form by hand. The geolocation button needs JavaScript.